Tracking 17780 objects as of 29-July-2016
HD Live streaming from Space Station
objects crossing your sky now

CZ-4 DEB

Track CZ-4 DEB now!
10-day predictions


NORAD ID: 26650
Int'l Code: 1999-057LG
Perigee: 632.1 km
Apogee: 649.6 km
Inclination: 98.6 °
Period: 97.4 minutes
Semi major axis: 7011 km
RCS: 0.0056 m2 (small)
Launch date: October 14, 1999
Source: People's Republic of China (PRC)
Launch site: Taiyaun Space Center, China (TSC)

Note: This is SATELLITE DEBRIS
Your satellite tracking list
Your tracking list is empty





NASA's NSSDC Master Catalog

Two Line Element Set (TLE):
1 26650U 99057LG  16208.12419032  .00000785  00000-0  11522-3 0  9992
2 26650  98.5617 267.1013 0012489 146.1233 244.0466 14.78613358862649
Source of the keplerian elements: AFSPC

N2YO: 906